Regional Weather Roundup
Issued by NWS State College, PA

Home | Current Version | Previous Version | Graphics & Text | Print | Product List | Glossary On
Versions: 1 2 3 4 5 6 7 8 9 10 11 12 13 14 15 16 17 18 19 20 21 22 23 24 25 26 27 28 29 30 31 32 33 34 35 36 37 38 39 40 41 42 43 44 45 46 47 48 49 50
000
ASUS41 KCTP 182003
RWRCTP

REGIONAL WEATHER ROUNDUP
NATIONAL WEATHER SERVICE STATE COLLEGE PA
300 PM EST MON DEC 18 2017

Note: "fair" indicates few or no clouds below 12,000 feet with no
significant weather and/or obstructions to visibility.

* = STATION THAT DOES NOT REPORT PRECIPITATION /E.G. RAIN...SNOW...ETC/
    THUNDER OR FOG.

PAZ002>004-007>009-013>016-020>023-029>032-182100-
WESTERN PENNSYLVANIA

CITY           SKY/WX    TMP DP  RH WIND       PRES   REMARKS
ERIE           LGT RAIN  38  35  89 S17       29.89F FOG
MEADVILLE      FOG       36  36 100 SW8       29.91S VSB 1
FRANKLIN*      MIX PCPN  36  35  96 SW12      29.91F VSB 1
NEW CASTLE     LGT RAIN  39  39 100 SW5       29.96S FOG
BEAVER COUNTY  CLOUDY    39  37  93 SW10G18   29.95S FOG
BUTLER*        CLOUDY    40  37  89 SW9       29.96R
PITTSBURGH INT DRIZZLE   44  40  85 W10G18    29.96S
PITTSBURGH     CLOUDY    42  38  85 SW14G24   29.96S
INDIANA*       FOG       39  39 100 W8        29.98S VSB 1/4
LATROBE        CLOUDY    43  43 100 SW10      29.98S
WASHINGTON CO* CLOUDY    43  39  86 SW9       30.01S
$$

PAZ004>006-010>012-017>019-024>028-033>037-041-042-045-046-049>053-182100-
CENTRAL PENNSYLVANIA

CITY           SKY/WX    TMP DP  RH WIND       PRES   REMARKS
BRADFORD       CLOUDY    35  34  96 SW7       29.87F FOG
DUBOIS         FOG       36  34  92 SW9       29.90S VSB 1/2
CLEARFIELD     CLOUDY    38  36  92 S6        29.93F FOG
JOHNSTOWN      LGT RAIN  38  37  97 W16G25    29.92R FOG
ALTOONA        CLOUDY    42  38  85 SW12      29.95F
STATE COLLEGE  CLOUDY    39  34  81 SW13      29.94F
WILLIAMSPORT   CLOUDY    42  32  67 SE3       29.95F
SELINSGROVE    CLOUDY    44  34  67 SW7       29.97F
FT INDIANTOWN  CLOUDY    45  34  65 SW7       29.98S
CAPITAL CITY   CLOUDY    47  33  58 W6        30.00S
HARRISBURG     CLOUDY    46  35  65 W8        29.99S
YORK           CLOUDY    48  37  65 W5        30.00R
$$

PAZ038>040-043-044-047-048-054-055-060>062-067>071-182100-
EASTERN PENNSYLVANIA

CITY           SKY/WX    TMP DP  RH WIND       PRES   REMARKS
SCRANTON       CLOUDY    42  32  67 SW10      29.93F
MOUNT POCONO   CLOUDY    39  31  72 W12       29.90F
ALLENTOWN      PTSUNNY   47  35  63 SW7       29.97F
QUAKERTOWN*    PTCLDY    46  32  57 SW6       29.98S
READING        CLOUDY    46  36  68 W10       29.97F
LANCASTER      CLOUDY    46  35  65 W8        29.98F
COATESVILLE    CLEAR     46  36  66 W6        29.99F
POTTSTOWN      SUNNY     48  34  58 W3        29.99S HAZE
BLUE BELL      PTSUNNY   46  34  61 SW3       29.99S
DOYLESTOWN     CLOUDY    46  34  62 SW6       29.97S
WILLOW GROVE   NOT AVBL
NORTH PHILA    CLOUDY    50  34  54 NW6       30.00S
PHILADELPHIA   CLOUDY    50  33  52 SW8       29.99F
$$




USA.gov is the U.S. government's official web portal to all federal, state and local government web resources and services.